Time,TemperatureF,DewpointF,PressureIn,WindDirection,WindDirectionDegrees,WindSpeedMPH,WindSpeedGustMPH,Humidity,HourlyPrecipIn,Conditions,Clouds,dailyrainin,SoftwareType,DateUTC
2013-06-26 00:01:00,66.1,65.2,29.66,WNW,294,1.0,1.0,97,0.00,,,0.08,Wunderground v.1.15,2013-06-26 04:01:00,
2013-06-26 00:03:00,66.1,65.2,29.66,NNW,328,2.0,2.0,97,0.00,,,0.08,Wunderground v.1.15,2013-06-26 04:03:00,
2013-06-26 00:04:00,66.1,65.2,29.66,NNW,333,0.0,2.0,97,0.00,,,0.08,Wunderground v.1.15,2013-06-26 04:04:00,
2013-06-26 00:06:00,66.1,65.2,29.66,NW,324,0.0,2.0,97,0.00,,,0.08,Wunderground v.1.15,2013-06-26 04:06:00,
2013-06-26 00:11:00,66.1,65.2,29.66,WSW,247,2.0,2.0,97,0.00,,,0.08,Wunderground v.1.15,2013-06-26 04:11:00,
2013-06-26 00:16:00,66.2,65.3,29.66,WNW,283,1.0,2.0,97,0.00,,,0.08,Wunderground v.1.15,2013-06-26 04:16:00,
2013-06-26 00:21:00,66.2,65.3,29.66,WSW,242,0.0,1.0,97,0.00,,,0.08,Wunderground v.1.15,2013-06-26 04:21:00,
2013-06-26 00:26:00,66.2,65.3,29.66,West,267,0.0,1.0,97,0.00,,,0.08,Wunderground v.1.15,2013-06-26 04:26:00,
2013-06-26 00:32:00,66.2,65.3,29.66,NW,322,3.0,3.0,97,0.00,,,0.08,Wunderground v.1.15,2013-06-26 04:32:00,
2013-06-26 00:37:00,66.2,65.3,29.66,WNW,296,1.0,3.0,97,0.00,,,0.08,Wunderground v.1.15,2013-06-26 04:37:00,
2013-06-26 00:42:00,66.2,65.3,29.66,NW,307,3.0,3.0,97,0.00,,,0.00,Wunderground v.1.15,2013-06-26 04:42:00,
2013-06-26 00:48:00,66.3,65.4,29.66,NW,308,2.0,4.0,97,0.00,,,0.00,Wunderground v.1.15,2013-06-26 04:48:00,
2013-06-26 00:53:00,66.3,65.4,29.66,West,259,1.0,2.0,97,0.00,,,0.00,Wunderground v.1.15,2013-06-26 04:53:00,
2013-06-26 00:59:00,66.2,65.3,29.66,ESE,116,2.0,2.0,97,0.00,,,0.00,Wunderground v.1.15,2013-06-26 04:59:00,
2013-06-26 01:04:00,66.1,65.2,29.66,NNE,15,1.0,1.0,97,0.00,,,0.00,Wunderground v.1.15,2013-06-26 05:04:00,
2013-06-26 01:09:00,66.0,65.1,29.65,NNW,335,0.0,1.0,97,0.00,,,0.00,Wunderground v.1.15,2013-06-26 05:09:00,
2013-06-26 01:15:00,65.8,64.9,29.65,NNW,334,0.0,1.0,97,0.00,,,0.00,Wunderground v.1.15,2013-06-26 05:15:00,
2013-06-26 01:20:00,65.6,64.7,29.65,NNE,26,1.0,1.0,97,0.00,,,0.00,Wunderground v.1.15,2013-06-26 05:20:00,
2013-06-26 01:26:00,65.4,64.5,29.65,NNE,13,0.0,1.0,97,0.00,,,0.00,Wunderground v.1.15,2013-06-26 05:26:00,
2013-06-26 01:31:00,65.3,64.4,29.65,NNW,337,0.0,1.0,97,0.00,,,0.00,Wunderground v.1.15,2013-06-26 05:31:00,
2013-06-26 01:36:00,65.1,64.2,29.65,NNW,337,0.0,1.0,97,0.00,,,0.00,Wunderground v.1.15,2013-06-26 05:36:00,
2013-06-26 01:41:00,65.0,64.1,29.65,NNW,337,0.0,0.0,97,0.00,,,0.00,Wunderground v.1.15,2013-06-26 05:41:00,
2013-06-26 01:47:00,64.7,63.8,29.64,NNW,337,0.0,0.0,97,0.00,,,0.00,Wunderground v.1.15,2013-06-26 05:47:00,
2013-06-26 01:52:00,64.6,63.7,29.64,NNW,337,0.0,0.0,97,0.00,,,0.00,Wunderground v.1.15,2013-06-26 05:52:00,
2013-06-26 01:58:00,64.5,63.6,29.65,NNW,337,0.0,0.0,97,0.00,,,0.00,Wunderground v.1.15,2013-06-26 05:58:00,
2013-06-26 02:03:00,64.3,63.4,29.64,NNW,337,0.0,0.0,97,0.00,,,0.00,Wunderground v.1.15,2013-06-26 06:03:00,
2013-06-26 02:08:00,64.4,63.8,29.64,North,8,0.0,2.0,98,0.00,,,0.00,Wunderground v.1.15,2013-06-26 06:08:00,
2013-06-26 02:13:00,64.6,64.0,29.64,WNW,302,0.0,1.0,98,0.00,,,0.00,Wunderground v.1.15,2013-06-26 06:13:00,
2013-06-26 02:18:00,64.7,64.1,29.65,NW,323,0.0,1.0,98,0.00,,,0.00,Wunderground v.1.15,2013-06-26 06:18:00,
2013-06-26 02:23:00,64.6,64.0,29.65,NW,323,0.0,0.0,98,0.00,,,0.00,Wunderground v.1.15,2013-06-26 06:23:00,
2013-06-26 02:28:00,64.6,64.0,29.65,NNE,19,1.0,2.0,98,0.00,,,0.00,Wunderground v.1.15,2013-06-26 06:28:00,
2013-06-26 02:33:00,64.5,63.9,29.65,NW,323,0.0,0.0,98,0.00,,,0.00,Wunderground v.1.15,2013-06-26 06:33:00,
2013-06-26 02:38:00,64.5,63.9,29.65,NW,323,0.0,0.0,98,0.00,,,0.00,Wunderground v.1.15,2013-06-26 06:38:00,
2013-06-26 02:43:00,64.4,63.8,29.65,NW,323,0.0,0.0,98,0.00,,,0.00,Wunderground v.1.15,2013-06-26 06:43:00,
2013-06-26 02:48:00,64.2,63.6,29.65,NW,323,0.0,0.0,98,0.00,,,0.00,Wunderground v.1.15,2013-06-26 06:48:00,
2013-06-26 02:54:00,64.1,63.5,29.65,NW,326,0.0,0.0,98,0.00,,,0.00,Wunderground v.1.15,2013-06-26 06:54:00,
2013-06-26 02:59:00,64.1,63.5,29.65,NW,326,0.0,0.0,98,0.00,,,0.00,Wunderground v.1.15,2013-06-26 06:59:00,
2013-06-26 03:04:00,64.1,63.5,29.64,NW,326,0.0,0.0,98,0.00,,,0.00,Wunderground v.1.15,2013-06-26 07:04:00,
2013-06-26 03:09:00,64.0,63.4,29.64,NW,326,0.0,0.0,98,0.00,,,0.00,Wunderground v.1.15,2013-06-26 07:09:00,
2013-06-26 03:14:00,63.9,63.3,29.64,NW,325,0.0,0.0,98,0.00,,,0.00,Wunderground v.1.15,2013-06-26 07:14:00,
2013-06-26 03:19:00,64.1,63.5,29.64,NW,326,0.0,0.0,98,0.00,,,0.00,Wunderground v.1.15,2013-06-26 07:19:00,
2013-06-26 03:24:00,64.4,63.8,29.64,ENE,64,0.0,1.0,98,0.00,,,0.00,Wunderground v.1.15,2013-06-26 07:24:00,
2013-06-26 03:29:00,64.4,63.8,29.64,ENE,64,0.0,0.0,98,0.00,,,0.00,Wunderground v.1.15,2013-06-26 07:29:00,
2013-06-26 03:34:00,64.1,63.5,29.64,ENE,64,0.0,1.0,98,0.00,,,0.00,Wunderground v.1.15,2013-06-26 07:34:00,
2013-06-26 03:39:00,64.2,63.6,29.64,ENE,64,0.0,0.0,98,0.00,,,0.00,Wunderground v.1.15,2013-06-26 07:39:00,
2013-06-26 03:44:00,64.1,63.5,29.64,ENE,64,0.0,0.0,98,0.00,,,0.00,Wunderground v.1.15,2013-06-26 07:44:00,
2013-06-26 03:49:00,63.8,63.2,29.64,ENE,63,0.0,0.0,98,0.00,,,0.00,Wunderground v.1.15,2013-06-26 07:49:00,
2013-06-26 03:54:00,63.7,63.1,29.64,ENE,64,0.0,0.0,98,0.00,,,0.00,Wunderground v.1.15,2013-06-26 07:54:00,
2013-06-26 03:59:00,63.6,63.0,29.63,ENE,63,0.0,0.0,98,0.00,,,0.00,Wunderground v.1.15,2013-06-26 07:59:00,
2013-06-26 04:04:00,63.4,62.8,29.64,ENE,64,0.0,0.0,98,0.00,,,0.00,Wunderground v.1.15,2013-06-26 08:04:00,
2013-06-26 04:09:00,63.0,62.4,29.64,ENE,64,0.0,0.0,98,0.00,,,0.00,Wunderground v.1.15,2013-06-26 08:09:00,
2013-06-26 04:14:00,63.0,62.4,29.64,ENE,63,0.0,0.0,98,0.00,,,0.00,Wunderground v.1.15,2013-06-26 08:14:00,
2013-06-26 04:19:00,63.0,62.4,29.64,ENE,64,0.0,0.0,98,0.00,,,0.00,Wunderground v.1.15,2013-06-26 08:19:00,
2013-06-26 04:24:00,62.6,62.0,29.64,ENE,65,0.0,0.0,98,0.00,,,0.00,Wunderground v.1.15,2013-06-26 08:24:00,
2013-06-26 04:29:00,62.5,61.9,29.64,ENE,65,0.0,0.0,98,0.00,,,0.00,Wunderground v.1.15,2013-06-26 08:29:00,
2013-06-26 04:34:00,62.5,61.9,29.65,ENE,65,0.0,0.0,98,0.00,,,0.00,Wunderground v.1.15,2013-06-26 08:34:00,
2013-06-26 04:39:00,62.7,62.1,29.65,ENE,63,0.0,0.0,98,0.00,,,0.00,Wunderground v.1.15,2013-06-26 08:39:00,
2013-06-26 04:44:00,62.9,62.3,29.65,ENE,64,0.0,0.0,98,0.00,,,0.00,Wunderground v.1.15,2013-06-26 08:44:00,
2013-06-26 04:49:00,63.0,62.4,29.65,ENE,64,0.0,0.0,98,0.00,,,0.00,Wunderground v.1.15,2013-06-26 08:49:00,
2013-06-26 04:54:00,63.2,62.6,29.65,ENE,64,0.0,0.0,98,0.00,,,0.00,Wunderground v.1.15,2013-06-26 08:54:00,
2013-06-26 04:59:00,63.3,62.7,29.65,ENE,65,0.0,0.0,98,0.00,,,0.00,Wunderground v.1.15,2013-06-26 08:59:00,
2013-06-26 05:04:00,63.2,62.6,29.65,ENE,63,0.0,0.0,98,0.00,,,0.00,Wunderground v.1.15,2013-06-26 09:04:00,
2013-06-26 05:10:00,63.2,62.6,29.65,ENE,63,0.0,0.0,98,0.00,,,0.00,Wunderground v.1.15,2013-06-26 09:10:00,
2013-06-26 05:15:00,63.3,62.7,29.66,ENE,64,0.0,0.0,98,0.00,,,0.00,Wunderground v.1.15,2013-06-26 09:15:00,
2013-06-26 05:20:00,63.5,62.9,29.65,ENE,64,0.0,0.0,98,0.00,,,0.00,Wunderground v.1.15,2013-06-26 09:20:00,
2013-06-26 05:25:00,63.5,62.9,29.66,ENE,64,0.0,0.0,98,0.00,,,0.00,Wunderground v.1.15,2013-06-26 09:25:00,
2013-06-26 05:30:00,63.7,63.1,29.66,ENE,64,0.0,0.0,98,0.00,,,0.00,Wunderground v.1.15,2013-06-26 09:30:00,
2013-06-26 05:35:00,63.7,63.1,29.66,ENE,63,0.0,0.0,98,0.00,,,0.00,Wunderground v.1.15,2013-06-26 09:35:00,
2013-06-26 05:40:00,63.8,63.2,29.66,ENE,64,0.0,0.0,98,0.00,,,0.00,Wunderground v.1.15,2013-06-26 09:40:00,
2013-06-26 05:45:00,63.7,63.1,29.66,SE,124,0.0,2.0,98,0.00,,,0.00,Wunderground v.1.15,2013-06-26 09:45:00,
2013-06-26 05:50:00,63.9,63.3,29.66,North,1,0.0,0.0,98,0.00,,,0.00,Wunderground v.1.15,2013-06-26 09:50:00,
2013-06-26 05:55:00,64.1,63.5,29.65,North,1,0.0,1.0,98,0.00,,,0.00,Wunderground v.1.15,2013-06-26 09:55:00,
2013-06-26 06:00:00,64.2,63.6,29.66,WSW,242,0.0,0.0,98,0.00,,,0.00,Wunderground v.1.15,2013-06-26 10:00:00,
2013-06-26 06:05:00,64.2,63.6,29.66,WSW,242,0.0,0.0,98,0.00,,,0.00,Wunderground v.1.15,2013-06-26 10:05:00,
2013-06-26 06:10:00,64.2,63.6,29.65,WSW,242,0.0,0.0,98,0.00,,,0.00,Wunderground v.1.15,2013-06-26 10:10:00,
2013-06-26 06:15:00,64.3,63.7,29.65,WSW,242,0.0,0.0,98,0.00,,,0.00,Wunderground v.1.15,2013-06-26 10:15:00,
2013-06-26 06:20:00,64.3,63.7,29.66,WSW,241,0.0,0.0,98,0.00,,,0.00,Wunderground v.1.15,2013-06-26 10:20:00,
2013-06-26 06:25:00,64.4,63.8,29.66,WSW,241,0.0,0.0,98,0.00,,,0.00,Wunderground v.1.15,2013-06-26 10:25:00,
2013-06-26 06:30:00,64.2,63.6,29.66,WSW,242,0.0,0.0,98,0.00,,,0.00,Wunderground v.1.15,2013-06-26 10:30:00,
2013-06-26 06:35:00,64.0,63.4,29.66,WSW,242,0.0,0.0,98,0.00,,,0.00,Wunderground v.1.15,2013-06-26 10:35:00,
2013-06-26 06:40:00,64.2,63.6,29.66,WSW,242,0.0,0.0,98,0.00,,,0.00,Wunderground v.1.15,2013-06-26 10:40:00,
2013-06-26 06:45:00,64.4,63.8,29.66,WSW,242,0.0,1.0,98,0.00,,,0.00,Wunderground v.1.15,2013-06-26 10:45:00,
2013-06-26 06:50:00,64.5,63.9,29.66,WSW,242,0.0,0.0,98,0.00,,,0.00,Wunderground v.1.15,2013-06-26 10:50:00,
2013-06-26 06:55:00,64.5,63.9,29.67,WSW,242,0.0,0.0,98,0.00,,,0.00,Wunderground v.1.15,2013-06-26 10:55:00,
2013-06-26 07:00:00,64.7,64.1,29.67,WSW,242,0.0,0.0,98,0.00,,,0.00,Wunderground v.1.15,2013-06-26 11:00:00,
2013-06-26 07:05:00,64.9,64.3,29.67,WSW,242,0.0,0.0,98,0.00,,,0.00,Wunderground v.1.15,2013-06-26 11:05:00,
2013-06-26 07:10:00,64.7,64.1,29.67,WSW,242,0.0,0.0,98,0.00,,,0.00,Wunderground v.1.15,2013-06-26 11:10:00,
2013-06-26 07:15:00,64.9,64.3,29.67,WSW,242,0.0,0.0,98,0.00,,,0.00,Wunderground v.1.15,2013-06-26 11:15:00,
2013-06-26 07:20:00,64.9,64.3,29.67,WSW,242,0.0,0.0,98,0.00,,,0.00,Wunderground v.1.15,2013-06-26 11:20:00,
2013-06-26 07:25:00,65.0,64.4,29.67,WSW,241,2.0,2.0,98,0.00,,,0.00,Wunderground v.1.15,2013-06-26 11:25:00,
2013-06-26 07:30:00,65.1,64.5,29.67,WSW,242,0.0,1.0,98,0.00,,,0.00,Wunderground v.1.15,2013-06-26 11:30:00,
2013-06-26 07:35:00,65.2,64.6,29.67,WSW,242,0.0,1.0,98,0.00,,,0.00,Wunderground v.1.15,2013-06-26 11:35:00,
2013-06-26 07:40:00,65.1,64.5,29.67,WSW,242,0.0,0.0,98,0.00,,,0.00,Wunderground v.1.15,2013-06-26 11:40:00,
2013-06-26 07:45:00,65.3,64.7,29.67,WSW,242,0.0,1.0,98,0.00,,,0.00,Wunderground v.1.15,2013-06-26 11:45:00,
2013-06-26 07:50:00,65.5,64.9,29.67,WSW,243,0.0,0.0,98,0.00,,,0.00,Wunderground v.1.15,2013-06-26 11:50:00,
2013-06-26 07:55:00,65.7,65.1,29.67,WSW,243,0.0,0.0,98,0.00,,,0.00,Wunderground v.1.15,2013-06-26 11:55:00,
2013-06-26 08:00:00,65.8,65.2,29.67,WSW,243,0.0,0.0,98,0.00,,,0.00,Wunderground v.1.15,2013-06-26 12:00:00,
2013-06-26 08:05:00,65.9,65.3,29.67,WSW,243,0.0,0.0,98,0.00,,,0.00,Wunderground v.1.15,2013-06-26 12:05:00,
2013-06-26 08:10:00,65.9,65.3,29.67,WSW,242,0.0,0.0,98,0.00,,,0.00,Wunderground v.1.15,2013-06-26 12:10:00,
2013-06-26 08:15:00,66.0,65.4,29.67,WSW,243,0.0,0.0,98,0.00,,,0.00,Wunderground v.1.15,2013-06-26 12:15:00,
2013-06-26 08:20:00,66.1,65.5,29.67,WSW,246,0.0,1.0,98,0.00,,,0.00,Wunderground v.1.15,2013-06-26 12:20:00,
2013-06-26 08:25:00,66.2,65.6,29.67,WSW,245,0.0,1.0,98,0.00,,,0.00,Wunderground v.1.15,2013-06-26 12:25:00,
2013-06-26 08:30:00,66.3,65.7,29.68,WNW,292,0.0,2.0,98,0.00,,,0.00,Wunderground v.1.15,2013-06-26 12:30:00,
2013-06-26 08:35:00,66.4,65.8,29.67,WNW,293,1.0,2.0,98,0.00,,,0.00,Wunderground v.1.15,2013-06-26 12:35:00,
2013-06-26 08:40:00,66.6,66.0,29.68,West,262,0.0,1.0,98,0.00,,,0.00,Wunderground v.1.15,2013-06-26 12:40:00,
2013-06-26 08:45:00,66.9,66.3,29.68,West,261,0.0,1.0,98,0.00,,,0.00,Wunderground v.1.15,2013-06-26 12:45:00,
2013-06-26 08:50:00,66.9,66.3,29.68,NW,304,1.0,3.0,98,0.00,,,0.00,Wunderground v.1.15,2013-06-26 12:50:00,
2013-06-26 08:55:00,67.1,66.5,29.68,WNW,299,1.0,3.0,98,0.00,,,0.00,Wunderground v.1.15,2013-06-26 12:55:00,
2013-06-26 09:00:00,67.5,66.9,29.68,WNW,302,0.0,0.0,98,0.00,,,0.00,Wunderground v.1.15,2013-06-26 13:00:00,
2013-06-26 09:05:00,67.6,67.0,29.67,WNW,302,0.0,1.0,98,0.00,,,0.00,Wunderground v.1.15,2013-06-26 13:05:00,
2013-06-26 09:10:00,67.6,66.7,29.67,WNW,283,1.0,3.0,97,0.00,,,0.00,Wunderground v.1.15,2013-06-26 13:10:00,
2013-06-26 09:15:00,67.6,66.4,29.67,NW,315,3.0,6.0,96,0.00,,,0.00,Wunderground v.1.15,2013-06-26 13:15:00,
2013-06-26 09:20:00,68.0,66.8,29.67,NW,321,2.0,5.0,96,0.00,,,0.00,Wunderground v.1.15,2013-06-26 13:20:00,
2013-06-26 09:25:00,68.1,66.6,29.67,West,266,2.0,5.0,95,0.00,,,0.00,Wunderground v.1.15,2013-06-26 13:25:00,
2013-06-26 09:30:00,68.5,67.3,29.67,WSW,242,0.0,2.0,96,0.00,,,0.00,Wunderground v.1.15,2013-06-26 13:30:00,
2013-06-26 09:35:00,68.9,67.7,29.67,NW,324,2.0,2.0,96,0.00,,,0.00,Wunderground v.1.15,2013-06-26 13:35:00,
2013-06-26 09:40:00,68.9,67.4,29.67,NW,324,1.0,1.0,95,0.00,,,0.00,Wunderground v.1.15,2013-06-26 13:40:00,
2013-06-26 09:45:00,69.0,67.5,29.67,NNW,343,3.0,4.0,95,0.00,,,0.00,Wunderground v.1.15,2013-06-26 13:45:00,
2013-06-26 09:50:00,69.1,67.6,29.67,WNW,299,0.0,2.0,95,0.00,,,0.00,Wunderground v.1.15,2013-06-26 13:50:00,
2013-06-26 09:55:00,69.0,67.2,29.67,West,269,0.0,3.0,94,0.00,,,0.00,Wunderground v.1.15,2013-06-26 13:55:00,
2013-06-26 10:00:00,68.6,66.8,29.67,NW,314,4.0,5.0,94,0.00,,,0.00,Wunderground v.1.15,2013-06-26 14:00:00,
2013-06-26 10:05:00,68.2,66.4,29.68,WSW,239,0.0,5.0,94,0.00,,,0.00,Wunderground v.1.15,2013-06-26 14:05:00,
2013-06-26 10:10:00,68.0,66.2,29.68,West,278,0.0,3.0,94,0.00,,,0.00,Wunderground v.1.15,2013-06-26 14:10:00,
2013-06-26 10:15:00,68.0,66.2,29.68,WNW,302,0.0,3.0,94,0.00,,,0.00,Wunderground v.1.15,2013-06-26 14:15:00,
2013-06-26 10:20:00,68.1,66.6,29.68,NW,305,1.0,1.0,95,0.00,,,0.00,Wunderground v.1.15,2013-06-26 14:20:00,
2013-06-26 10:25:00,68.1,66.6,29.68,NW,304,1.0,2.0,95,0.00,,,0.00,Wunderground v.1.15,2013-06-26 14:25:00,
2013-06-26 10:30:00,68.1,66.3,29.68,West,273,2.0,4.0,94,0.00,,,0.00,Wunderground v.1.15,2013-06-26 14:30:00,
2013-06-26 10:35:00,68.1,66.6,29.67,NW,309,0.0,4.0,95,0.00,,,0.00,Wunderground v.1.15,2013-06-26 14:35:00,
2013-06-26 10:40:00,68.2,66.4,29.68,WSW,254,0.0,3.0,94,0.00,,,0.00,Wunderground v.1.15,2013-06-26 14:40:00,
2013-06-26 10:45:00,68.2,66.7,29.68,West,271,0.0,3.0,95,0.00,,,0.00,Wunderground v.1.15,2013-06-26 14:45:00,
2013-06-26 10:50:00,68.3,66.8,29.68,WSW,256,0.0,0.0,95,0.00,,,0.00,Wunderground v.1.15,2013-06-26 14:50:00,
2013-06-26 10:55:00,68.3,66.8,29.68,West,263,0.0,0.0,95,0.00,,,0.00,Wunderground v.1.15,2013-06-26 14:55:00,
2013-06-26 11:00:00,68.3,66.5,29.69,NW,325,0.0,2.0,94,0.00,,,0.00,Wunderground v.1.15,2013-06-26 15:00:00,
2013-06-26 11:06:00,68.1,66.3,29.69,West,262,0.0,3.0,94,0.00,,,0.00,Wunderground v.1.15,2013-06-26 15:06:00,
2013-06-26 11:11:00,68.1,66.3,29.69,WNW,285,1.0,1.0,94,0.00,,,0.00,Wunderground v.1.15,2013-06-26 15:11:00,
2013-06-26 11:16:00,68.1,66.3,29.69,WSW,247,0.0,2.0,94,0.00,,,0.00,Wunderground v.1.15,2013-06-26 15:16:00,
2013-06-26 11:21:00,68.0,66.2,29.69,WSW,249,2.0,3.0,94,0.00,,,0.01,Wunderground v.1.15,2013-06-26 15:21:00,
2013-06-26 11:25:00,67.8,66.3,29.69,SE,138,0.0,4.0,95,0.00,,,0.01,Wunderground v.1.15,2013-06-26 15:25:00,
2013-06-26 11:30:00,67.4,65.9,29.69,NE,54,0.0,3.0,95,0.88,,,0.06,Wunderground v.1.15,2013-06-26 15:30:00,
2013-06-26 11:35:00,67.1,65.6,29.69,WSW,249,0.0,3.0,95,0.26,,,0.10,Wunderground v.1.15,2013-06-26 15:35:00,
2013-06-26 11:40:00,66.9,65.4,29.69,WNW,288,2.0,3.0,95,0.11,,,0.10,Wunderground v.1.15,2013-06-26 15:40:00,
2013-06-26 11:45:00,66.8,65.6,29.69,NW,312,0.0,3.0,96,0.10,,,0.11,Wunderground v.1.15,2013-06-26 15:45:00,
2013-06-26 11:50:00,66.7,65.5,29.69,WSW,246,1.0,1.0,96,0.06,,,0.11,Wunderground v.1.15,2013-06-26 15:50:00,
2013-06-26 11:56:00,66.7,65.5,29.69,NW,311,0.0,1.0,96,0.04,,,0.11,Wunderground v.1.15,2013-06-26 15:56:00,
2013-06-26 12:00:00,66.6,65.4,29.69,West,267,0.0,1.0,96,0.00,,,0.12,Wunderground v.1.15,2013-06-26 16:00:00,
2013-06-26 12:05:00,66.6,65.4,29.69,WSW,249,0.0,2.0,96,0.00,,,0.12,Wunderground v.1.15,2013-06-26 16:05:00,
2013-06-26 12:10:00,66.7,65.8,29.69,WSW,249,0.0,0.0,97,0.00,,,0.12,Wunderground v.1.15,2013-06-26 16:10:00,
2013-06-26 12:15:00,66.8,65.9,29.69,West,262,0.0,4.0,97,0.00,,,0.12,Wunderground v.1.15,2013-06-26 16:15:00,
2013-06-26 12:20:00,66.6,65.4,29.70,West,266,0.0,1.0,96,0.04,,,0.13,Wunderground v.1.15,2013-06-26 16:20:00,
2013-06-26 12:25:00,66.5,65.3,29.70,NW,308,0.0,2.0,96,0.04,,,0.13,Wunderground v.1.15,2013-06-26 16:25:00,
2013-06-26 12:30:00,66.4,65.5,29.69,NW,308,0.0,0.0,97,0.04,,,0.14,Wunderground v.1.15,2013-06-26 16:30:00,
2013-06-26 12:35:00,66.3,65.1,29.70,NW,323,0.0,1.0,96,0.04,,,0.14,Wunderground v.1.15,2013-06-26 16:35:00,
2013-06-26 12:40:00,66.5,65.6,29.69,NW,322,0.0,0.0,97,0.04,,,0.14,Wunderground v.1.15,2013-06-26 16:40:00,
2013-06-26 12:45:00,66.8,65.9,29.69,NW,323,0.0,0.0,97,0.04,,,0.15,Wunderground v.1.15,2013-06-26 16:45:00,
2013-06-26 12:50:00,66.8,65.9,29.70,NW,321,0.0,0.0,97,0.04,,,0.15,Wunderground v.1.15,2013-06-26 16:50:00,
2013-06-26 12:55:00,67.0,66.1,29.70,NW,320,0.0,0.0,97,0.04,,,0.15,Wunderground v.1.15,2013-06-26 16:55:00,
2013-06-26 13:01:00,66.9,66.0,29.70,NW,321,0.0,0.0,97,0.04,,,0.16,Wunderground v.1.15,2013-06-26 17:01:00,
2013-06-26 13:06:00,66.8,65.9,29.70,WNW,297,0.0,0.0,97,0.04,,,0.16,Wunderground v.1.15,2013-06-26 17:06:00,
2013-06-26 13:10:00,66.8,65.9,29.70,NW,319,2.0,2.0,97,0.06,,,0.17,Wunderground v.1.15,2013-06-26 17:10:00,
2013-06-26 13:16:00,66.8,65.9,29.70,NW,321,0.0,2.0,97,0.17,,,0.18,Wunderground v.1.15,2013-06-26 17:16:00,
2013-06-26 13:21:00,67.0,66.1,29.70,NW,309,0.0,1.0,97,0.18,,,0.19,Wunderground v.1.15,2013-06-26 17:21:00,
2013-06-26 13:26:00,66.8,65.9,29.70,West,269,1.0,1.0,97,0.08,,,0.20,Wunderground v.1.15,2013-06-26 17:26:00,
2013-06-26 13:30:00,66.7,65.8,29.70,SW,214,0.0,0.0,97,0.14,,,0.21,Wunderground v.1.15,2013-06-26 17:30:00,
2013-06-26 13:35:00,66.7,65.8,29.70,SE,129,0.0,2.0,97,0.27,,,0.23,Wunderground v.1.15,2013-06-26 17:35:00,
2013-06-26 13:40:00,66.5,65.6,29.70,West,263,0.0,0.0,97,0.17,,,0.24,Wunderground v.1.15,2013-06-26 17:40:00,
2013-06-26 13:45:00,66.4,65.5,29.70,WNW,298,0.0,0.0,97,0.13,,,0.25,Wunderground v.1.15,2013-06-26 17:45:00,
2013-06-26 13:50:00,66.3,65.4,29.70,WNW,295,0.0,0.0,97,0.13,,,0.26,Wunderground v.1.15,2013-06-26 17:50:00,
2013-06-26 13:56:00,66.4,65.5,29.70,WNW,294,0.0,0.0,97,0.42,,,0.29,Wunderground v.1.15,2013-06-26 17:56:00,
2013-06-26 14:01:00,66.4,65.5,29.70,WNW,290,0.0,0.0,97,0.22,,,0.31,Wunderground v.1.15,2013-06-26 18:01:00,
2013-06-26 14:06:00,66.2,65.3,29.70,West,265,0.0,1.0,97,0.18,,,0.32,Wunderground v.1.15,2013-06-26 18:06:00,
2013-06-26 14:11:00,66.2,65.3,29.70,West,266,0.0,0.0,97,0.27,,,0.34,Wunderground v.1.15,2013-06-26 18:11:00,
2013-06-26 14:16:00,66.2,65.3,29.70,West,266,1.0,1.0,97,0.30,,,0.37,Wunderground v.1.15,2013-06-26 18:16:00,
2013-06-26 14:20:00,66.2,65.3,29.70,WNW,288,0.0,0.0,97,0.28,,,0.39,Wunderground v.1.15,2013-06-26 18:20:00,
2013-06-26 14:25:00,66.1,65.2,29.70,SW,219,0.0,2.0,97,0.25,,,0.41,Wunderground v.1.15,2013-06-26 18:25:00,
2013-06-26 14:30:00,66.2,65.3,29.70,SW,219,0.0,0.0,97,0.28,,,0.43,Wunderground v.1.15,2013-06-26 18:30:00,
2013-06-26 14:35:00,66.1,65.2,29.70,SW,219,0.0,0.0,97,0.23,,,0.45,Wunderground v.1.15,2013-06-26 18:35:00,
2013-06-26 14:40:00,66.1,65.2,29.70,SW,219,0.0,0.0,97,0.62,,,0.51,Wunderground v.1.15,2013-06-26 18:40:00,
2013-06-26 14:45:00,66.1,65.2,29.70,SW,219,0.0,0.0,97,0.20,,,0.54,Wunderground v.1.15,2013-06-26 18:45:00,
2013-06-26 14:50:00,66.0,65.1,29.70,SW,219,0.0,0.0,97,0.23,,,0.55,Wunderground v.1.15,2013-06-26 18:50:00,
2013-06-26 14:56:00,66.0,65.1,29.70,SW,219,0.0,0.0,97,0.16,,,0.57,Wunderground v.1.15,2013-06-26 18:56:00,
2013-06-26 15:01:00,65.9,65.0,29.71,WSW,256,0.0,0.0,97,0.26,,,0.59,Wunderground v.1.15,2013-06-26 19:01:00,
2013-06-26 15:06:00,66.0,65.4,29.70,WSW,256,0.0,0.0,98,0.12,,,0.60,Wunderground v.1.15,2013-06-26 19:06:00,
2013-06-26 15:11:00,66.0,65.1,29.71,SE,139,0.0,0.0,97,0.12,,,0.60,Wunderground v.1.15,2013-06-26 19:11:00,
2013-06-26 15:16:00,66.3,65.7,29.71,SE,139,0.0,0.0,98,0.10,,,0.61,Wunderground v.1.15,2013-06-26 19:16:00,
2013-06-26 15:21:00,66.3,65.7,29.71,SE,140,0.0,0.0,98,0.07,,,0.61,Wunderground v.1.15,2013-06-26 19:21:00,
2013-06-26 15:26:00,66.2,65.3,29.71,SSE,157,0.0,0.0,97,0.04,,,0.61,Wunderground v.1.15,2013-06-26 19:26:00,
2013-06-26 15:31:00,66.3,65.4,29.71,South,172,0.0,0.0,97,0.00,,,0.61,Wunderground v.1.15,2013-06-26 19:31:00,
2013-06-26 15:36:00,66.2,65.3,29.71,SSW,205,0.0,0.0,97,0.00,,,0.62,Wunderground v.1.15,2013-06-26 19:36:00,
2013-06-26 15:41:00,66.1,65.2,29.71,SE,124,1.0,2.0,97,0.00,,,0.62,Wunderground v.1.15,2013-06-26 19:41:00,
2013-06-26 15:46:00,65.9,65.0,29.71,SE,127,1.0,3.0,97,0.07,,,0.63,Wunderground v.1.15,2013-06-26 19:46:00,
2013-06-26 15:51:00,65.9,65.0,29.71,SE,133,0.0,1.0,97,0.06,,,0.63,Wunderground v.1.15,2013-06-26 19:51:00,
2013-06-26 15:56:00,65.8,64.9,29.71,SW,232,0.0,1.0,97,0.04,,,0.63,Wunderground v.1.15,2013-06-26 19:56:00,
2013-06-26 16:01:00,66.0,65.1,29.71,SSW,213,0.0,0.0,97,0.19,,,0.65,Wunderground v.1.15,2013-06-26 20:01:00,
2013-06-26 16:06:00,66.0,65.1,29.71,West,264,2.0,3.0,97,0.08,,,0.66,Wunderground v.1.15,2013-06-26 20:06:00,
2013-06-26 16:11:00,66.2,65.3,29.71,SW,217,0.0,1.0,97,0.08,,,0.66,Wunderground v.1.15,2013-06-26 20:11:00,
2013-06-26 16:16:00,66.6,66.0,29.70,SW,231,1.0,2.0,98,0.06,,,0.66,Wunderground v.1.15,2013-06-26 20:16:00,
2013-06-26 16:21:00,66.7,65.8,29.70,WSW,254,0.0,2.0,97,0.04,,,0.66,Wunderground v.1.15,2013-06-26 20:21:00,
2013-06-26 16:26:00,67.2,66.3,29.70,WSW,249,0.0,2.0,97,0.00,,,0.66,Wunderground v.1.15,2013-06-26 20:26:00,
2013-06-26 16:31:00,68.2,67.3,29.70,South,176,1.0,1.0,97,0.00,,,0.66,Wunderground v.1.15,2013-06-26 20:31:00,
2013-06-26 16:36:00,68.5,67.0,29.70,South,185,2.0,4.0,95,0.00,,,0.66,Wunderground v.1.15,2013-06-26 20:36:00,
2013-06-26 16:41:00,68.9,67.4,29.70,SE,134,1.0,2.0,95,0.00,,,0.66,Wunderground v.1.15,2013-06-26 20:41:00,
2013-06-26 16:46:00,69.8,68.0,29.70,SW,226,3.0,4.0,94,0.00,,,0.66,Wunderground v.1.15,2013-06-26 20:46:00,
2013-06-26 16:51:00,69.4,67.3,29.70,WSW,253,0.0,4.0,93,0.00,,,0.66,Wunderground v.1.15,2013-06-26 20:51:00,
2013-06-26 16:56:00,69.7,67.6,29.70,South,179,3.0,4.0,93,0.00,,,0.66,Wunderground v.1.15,2013-06-26 20:56:00,
2013-06-26 17:01:00,69.5,66.8,29.70,West,267,0.0,1.0,91,0.00,,,0.66,Wunderground v.1.15,2013-06-26 21:01:00,
2013-06-26 17:06:00,69.4,66.3,29.70,NW,325,0.0,2.0,90,0.00,,,0.66,Wunderground v.1.15,2013-06-26 21:06:00,
2013-06-26 17:11:00,69.9,67.8,29.70,WNW,298,0.0,1.0,93,0.00,,,0.66,Wunderground v.1.15,2013-06-26 21:11:00,
2013-06-26 17:16:00,69.5,65.8,29.70,West,259,0.0,1.0,88,0.00,,,0.66,Wunderground v.1.15,2013-06-26 21:16:00,
2013-06-26 17:21:00,69.0,65.9,29.70,WSW,246,0.0,0.0,90,0.00,,,0.66,Wunderground v.1.15,2013-06-26 21:21:00,
2013-06-26 17:26:00,68.9,65.8,29.70,WSW,247,0.0,0.0,90,0.00,,,0.66,Wunderground v.1.15,2013-06-26 21:26:00,
2013-06-26 17:31:00,68.9,66.5,29.70,WSW,246,0.0,0.0,92,0.00,,,0.66,Wunderground v.1.15,2013-06-26 21:31:00,
2013-06-26 17:36:00,68.9,66.5,29.70,WSW,250,0.0,0.0,92,0.00,,,0.66,Wunderground v.1.15,2013-06-26 21:36:00,
2013-06-26 17:41:00,68.9,66.2,29.69,WSW,250,0.0,0.0,91,0.00,,,0.66,Wunderground v.1.15,2013-06-26 21:41:00,
2013-06-26 17:46:00,69.2,66.8,29.70,WSW,243,0.0,0.0,92,0.00,,,0.66,Wunderground v.1.15,2013-06-26 21:46:00,
2013-06-26 17:51:00,69.2,66.1,29.70,WSW,243,0.0,0.0,90,0.00,,,0.66,Wunderground v.1.15,2013-06-26 21:51:00,
2013-06-26 17:56:00,69.2,66.8,29.69,WSW,242,0.0,0.0,92,0.00,,,0.66,Wunderground v.1.15,2013-06-26 21:56:00,
2013-06-26 18:01:00,69.6,67.2,29.70,SSE,157,0.0,0.0,92,0.00,,,0.66,Wunderground v.1.15,2013-06-26 22:01:00,
2013-06-26 18:06:00,70.0,67.3,29.70,SE,146,0.0,0.0,91,0.00,,,0.66,Wunderground v.1.15,2013-06-26 22:06:00,
2013-06-26 18:11:00,69.9,66.5,29.70,SE,138,0.0,0.0,89,0.00,,,0.66,Wunderground v.1.15,2013-06-26 22:11:00,
2013-06-26 18:16:00,69.8,66.7,29.70,SE,138,0.0,0.0,90,0.00,,,0.66,Wunderground v.1.15,2013-06-26 22:16:00,
2013-06-26 18:21:00,70.5,67.7,29.70,SE,138,0.0,0.0,91,0.00,,,0.66,Wunderground v.1.15,2013-06-26 22:21:00,
2013-06-26 18:26:00,71.1,67.7,29.70,SE,138,0.0,0.0,89,0.00,,,0.66,Wunderground v.1.15,2013-06-26 22:26:00,
2013-06-26 18:31:00,70.6,67.5,29.70,SE,138,0.0,0.0,90,0.00,,,0.66,Wunderground v.1.15,2013-06-26 22:31:00,
2013-06-26 18:36:00,70.6,66.9,29.70,South,178,0.0,0.0,88,0.00,,,0.66,Wunderground v.1.15,2013-06-26 22:36:00,
2013-06-26 18:41:00,69.8,67.1,29.70,WSW,246,0.0,0.0,91,0.00,,,0.66,Wunderground v.1.15,2013-06-26 22:41:00,
2013-06-26 18:46:00,69.4,66.3,29.71,WSW,246,0.0,0.0,90,0.00,,,0.66,Wunderground v.1.15,2013-06-26 22:46:00,
2013-06-26 18:51:00,69.6,67.2,29.71,WSW,246,0.0,0.0,92,0.00,,,0.66,Wunderground v.1.15,2013-06-26 22:51:00,
2013-06-26 18:56:00,70.1,67.3,29.71,WSW,246,0.0,0.0,91,0.00,,,0.66,Wunderground v.1.15,2013-06-26 22:56:00,
2013-06-26 19:01:00,70.3,66.9,29.71,West,263,0.0,0.0,89,0.00,,,0.66,Wunderground v.1.15,2013-06-26 23:01:00,
2013-06-26 19:06:00,70.7,67.6,29.71,West,262,0.0,0.0,90,0.00,,,0.66,Wunderground v.1.15,2013-06-26 23:06:00,
2013-06-26 19:11:00,71.2,68.1,29.70,West,262,0.0,0.0,90,0.00,,,0.66,Wunderground v.1.15,2013-06-26 23:11:00,
2013-06-26 19:16:00,71.8,68.1,29.71,West,262,0.0,0.0,88,0.00,,,0.66,Wunderground v.1.15,2013-06-26 23:16:00,
2013-06-26 19:21:00,70.9,67.2,29.71,West,263,0.0,0.0,88,0.00,,,0.66,Wunderground v.1.15,2013-06-26 23:21:00,
2013-06-26 19:22:00,70.9,67.2,29.71,West,263,0.0,0.0,88,0.00,,,0.66,Wunderground v.1.15,2013-06-26 23:22:00,
2013-06-26 19:27:00,70.2,67.1,29.70,West,263,0.0,0.0,90,0.00,,,0.66,Wunderground v.1.15,2013-06-26 23:27:00,
2013-06-26 19:32:00,69.9,67.2,29.71,West,263,0.0,0.0,91,0.00,,,0.66,Wunderground v.1.15,2013-06-26 23:32:00,
2013-06-26 19:37:00,69.4,67.0,29.71,West,263,0.0,0.0,92,0.00,,,0.66,Wunderground v.1.15,2013-06-26 23:37:00,
2013-06-26 19:42:00,68.9,66.8,29.71,West,263,0.0,0.0,93,0.00,,,0.66,Wunderground v.1.15,2013-06-26 23:42:00,
2013-06-26 19:47:00,68.3,66.5,29.71,West,263,0.0,0.0,94,0.00,,,0.66,Wunderground v.1.15,2013-06-26 23:47:00,
2013-06-26 19:52:00,67.7,65.9,29.70,West,262,0.0,0.0,94,0.00,,,0.66,Wunderground v.1.15,2013-06-26 23:52:00,
2013-06-26 19:57:00,67.1,65.6,29.70,West,263,0.0,0.0,95,0.00,,,0.66,Wunderground v.1.15,2013-06-26 23:57:00,
2013-06-26 20:02:00,66.6,65.1,29.70,West,262,0.0,0.0,95,0.00,,,0.66,Wunderground v.1.15,2013-06-27 00:02:00,
2013-06-26 20:07:00,66.2,65.0,29.70,West,263,0.0,0.0,96,0.00,,,0.66,Wunderground v.1.15,2013-06-27 00:07:00,
2013-06-26 20:12:00,66.0,64.8,29.70,West,263,0.0,0.0,96,0.00,,,0.66,Wunderground v.1.15,2013-06-27 00:12:00,
2013-06-26 20:17:00,65.7,64.5,29.70,ENE,78,0.0,0.0,96,0.00,,,0.66,Wunderground v.1.15,2013-06-27 00:17:00,
2013-06-26 20:22:00,65.4,64.2,29.71,East,98,0.0,0.0,96,0.00,,,0.66,Wunderground v.1.15,2013-06-27 00:22:00,
2013-06-26 20:27:00,65.1,64.2,29.71,East,99,0.0,0.0,97,0.00,,,0.66,Wunderground v.1.15,2013-06-27 00:27:00,
2013-06-26 20:32:00,65.0,64.1,29.71,East,98,0.0,0.0,97,0.00,,,0.66,Wunderground v.1.15,2013-06-27 00:32:00,
2013-06-26 20:37:00,64.8,63.9,29.71,East,98,0.0,0.0,97,0.00,,,0.66,Wunderground v.1.15,2013-06-27 00:37:00,
2013-06-26 20:42:00,64.8,63.9,29.71,East,98,0.0,0.0,97,0.00,,,0.66,Wunderground v.1.15,2013-06-27 00:42:00,
2013-06-26 20:47:00,64.7,63.8,29.71,East,98,0.0,0.0,97,0.00,,,0.66,Wunderground v.1.15,2013-06-27 00:47:00,
2013-06-26 20:52:00,64.6,63.7,29.71,East,99,0.0,0.0,97,0.00,,,0.66,Wunderground v.1.15,2013-06-27 00:52:00,
2013-06-26 20:57:00,64.4,63.5,29.71,East,98,0.0,0.0,97,0.00,,,0.66,Wunderground v.1.15,2013-06-27 00:57:00,
2013-06-26 21:02:00,64.2,63.3,29.71,East,98,0.0,0.0,97,0.00,,,0.66,Wunderground v.1.15,2013-06-27 01:02:00,
2013-06-26 21:07:00,63.9,63.0,29.72,East,98,0.0,0.0,97,0.00,,,0.66,Wunderground v.1.15,2013-06-27 01:07:00,
2013-06-26 21:12:00,63.7,62.8,29.72,East,99,0.0,0.0,97,0.00,,,0.66,Wunderground v.1.15,2013-06-27 01:12:00,
2013-06-26 21:17:00,63.6,62.7,29.72,East,99,0.0,0.0,97,0.00,,,0.66,Wunderground v.1.15,2013-06-27 01:17:00,
2013-06-26 21:22:00,63.5,62.6,29.71,East,98,0.0,0.0,97,0.00,,,0.66,Wunderground v.1.15,2013-06-27 01:22:00,
2013-06-26 21:27:00,63.3,62.4,29.72,East,98,0.0,0.0,97,0.00,,,0.66,Wunderground v.1.15,2013-06-27 01:27:00,
2013-06-26 21:32:00,63.1,62.2,29.72,East,99,0.0,0.0,97,0.00,,,0.66,Wunderground v.1.15,2013-06-27 01:32:00,
2013-06-26 21:37:00,63.1,62.5,29.72,East,99,0.0,0.0,98,0.00,,,0.66,Wunderground v.1.15,2013-06-27 01:37:00,
2013-06-26 21:42:00,63.0,62.4,29.73,East,98,0.0,0.0,98,0.00,,,0.66,Wunderground v.1.15,2013-06-27 01:42:00,
2013-06-26 21:47:00,62.9,62.3,29.73,East,98,0.0,0.0,98,0.00,,,0.66,Wunderground v.1.15,2013-06-27 01:47:00,
2013-06-26 21:52:00,62.8,62.2,29.73,East,99,0.0,0.0,98,0.00,,,0.66,Wunderground v.1.15,2013-06-27 01:52:00,
2013-06-26 21:57:00,62.7,62.1,29.73,East,99,0.0,0.0,98,0.00,,,0.66,Wunderground v.1.15,2013-06-27 01:57:00,
2013-06-26 22:02:00,62.6,62.0,29.73,East,99,0.0,0.0,98,0.00,,,0.66,Wunderground v.1.15,2013-06-27 02:02:00,
2013-06-26 22:07:00,62.5,61.9,29.73,East,98,0.0,0.0,98,0.00,,,0.66,Wunderground v.1.15,2013-06-27 02:07:00,
2013-06-26 22:12:00,62.5,61.9,29.72,East,99,0.0,0.0,98,0.00,,,0.66,Wunderground v.1.15,2013-06-27 02:12:00,
2013-06-26 22:17:00,62.4,61.8,29.73,East,98,0.0,0.0,98,0.00,,,0.66,Wunderground v.1.15,2013-06-27 02:17:00,
2013-06-26 22:22:00,62.1,61.5,29.72,East,99,0.0,0.0,98,0.00,,,0.66,Wunderground v.1.15,2013-06-27 02:22:00,
2013-06-26 22:27:00,62.0,61.4,29.72,East,99,0.0,0.0,98,0.00,,,0.66,Wunderground v.1.15,2013-06-27 02:27:00,
2013-06-26 22:32:00,61.8,61.2,29.73,East,98,0.0,0.0,98,0.00,,,0.66,Wunderground v.1.15,2013-06-27 02:32:00,
2013-06-26 22:37:00,61.6,61.0,29.72,East,99,0.0,0.0,98,0.00,,,0.66,Wunderground v.1.15,2013-06-27 02:37:00,
2013-06-26 22:42:00,61.5,60.9,29.73,East,98,0.0,0.0,98,0.00,,,0.66,Wunderground v.1.15,2013-06-27 02:42:00,
2013-06-26 22:48:00,61.4,60.8,29.72,East,99,0.0,0.0,98,0.00,,,0.66,Wunderground v.1.15,2013-06-27 02:48:00,
2013-06-26 22:53:00,61.3,60.7,29.72,East,98,0.0,0.0,98,0.00,,,0.66,Wunderground v.1.15,2013-06-27 02:53:00,
2013-06-26 22:58:00,61.5,60.9,29.72,East,98,0.0,0.0,98,0.00,,,0.66,Wunderground v.1.15,2013-06-27 02:58:00,
2013-06-26 23:03:00,61.5,60.9,29.72,East,98,0.0,0.0,98,0.00,,,0.66,Wunderground v.1.15,2013-06-27 03:03:00,
2013-06-26 23:08:00,61.5,60.9,29.72,East,99,0.0,0.0,98,0.00,,,0.66,Wunderground v.1.15,2013-06-27 03:08:00,
2013-06-26 23:13:00,61.6,61.0,29.72,East,99,0.0,0.0,98,0.00,,,0.66,Wunderground v.1.15,2013-06-27 03:13:00,
2013-06-26 23:18:00,61.8,61.2,29.72,East,99,0.0,0.0,98,0.00,,,0.66,Wunderground v.1.15,2013-06-27 03:18:00,
2013-06-26 23:23:00,61.7,61.1,29.72,East,98,0.0,0.0,98,0.00,,,0.66,Wunderground v.1.15,2013-06-27 03:23:00,
2013-06-26 23:28:00,61.8,61.2,29.72,East,99,0.0,0.0,98,0.00,,,0.66,Wunderground v.1.15,2013-06-27 03:28:00,
2013-06-26 23:33:00,61.9,61.3,29.72,East,99,0.0,0.0,98,0.00,,,0.66,Wunderground v.1.15,2013-06-27 03:33:00,
2013-06-26 23:38:00,62.2,61.6,29.72,East,98,1.0,3.0,98,0.00,,,0.66,Wunderground v.1.15,2013-06-27 03:38:00,
2013-06-26 23:43:00,62.5,61.9,29.72,ESE,109,0.0,1.0,98,0.00,,,0.66,Wunderground v.1.15,2013-06-27 03:43:00,
2013-06-26 23:48:00,62.7,62.1,29.72,SE,134,0.0,5.0,98,0.00,,,0.66,Wunderground v.1.15,2013-06-27 03:48:00,
2013-06-26 23:53:00,62.4,61.8,29.72,SE,134,0.0,1.0,98,0.00,,,0.66,Wunderground v.1.15,2013-06-27 03:53:00,
2013-06-26 23:58:00,62.1,61.5,29.73,SE,134,0.0,1.0,98,0.00,,,0.66,Wunderground v.1.15,2013-06-27 03:58:00,